Time,TemperatureF,DewpointF,PressureIn,WindDirection,WindDirectionDegrees,WindSpeedMPH,WindSpeedGustMPH,Humidity,HourlyPrecipIn,Conditions,Clouds,dailyrainin,SoftwareType,DateUTC
2013-10-08 00:04:00,56.5,52.0,29.94,South,187,5.0,8.0,85,0.00,,,0.00,meteohub,2013-10-08 07:04:00,
2013-10-08 00:09:00,56.5,52.0,29.94,South,185,6.0,8.0,85,0.00,,,0.00,meteohub,2013-10-08 07:09:00,
2013-10-08 00:14:00,56.3,51.8,29.94,SSW,197,7.0,9.0,85,0.00,,,0.00,meteohub,2013-10-08 07:14:00,
2013-10-08 00:19:00,56.1,51.6,29.93,SSW,201,7.0,10.0,85,0.00,,,0.00,meteohub,2013-10-08 07:19:00,
2013-10-08 00:24:00,56.1,51.6,29.93,SSW,199,5.0,10.0,85,0.00,,,0.00,meteohub,2013-10-08 07:24:00,
2013-10-08 00:29:00,56.1,51.6,29.93,SSW,200,5.0,10.0,85,0.00,,,0.00,meteohub,2013-10-08 07:29:00,
2013-10-08 00:34:00,55.9,51.4,29.94,SSW,208,5.0,10.0,85,0.00,,,0.00,meteohub,2013-10-08 07:34:00,
2013-10-08 00:39:00,55.8,51.3,29.93,SSW,199,4.0,9.0,85,0.00,,,0.00,meteohub,2013-10-08 07:39:00,
2013-10-08 00:44:00,55.8,51.3,29.93,SSW,198,3.0,9.0,85,0.00,,,0.00,meteohub,2013-10-08 07:44:00,
2013-10-08 00:49:00,55.8,51.6,29.94,SSW,200,8.0,8.0,86,0.00,,,0.00,meteohub,2013-10-08 07:49:00,
2013-10-08 00:54:00,55.6,51.1,29.93,SSW,194,6.0,9.0,85,0.00,,,0.00,meteohub,2013-10-08 07:54:00,
2013-10-08 00:59:00,55.6,51.1,29.93,SSW,197,6.0,9.0,85,0.00,,,0.00,meteohub,2013-10-08 07:59:00,
2013-10-08 01:04:00,55.4,51.3,29.93,SSW,195,5.0,9.0,86,0.00,,,0.00,meteohub,2013-10-08 08:04:00,
2013-10-08 01:09:00,55.4,51.3,29.93,SSW,199,5.0,9.0,86,0.00,,,0.00,meteohub,2013-10-08 08:09:00,
2013-10-08 01:14:00,55.2,51.1,29.93,SSW,199,6.0,9.0,86,0.00,,,0.00,meteohub,2013-10-08 08:14:00,
2013-10-08 01:19:00,55.0,50.9,29.93,SSW,199,7.0,9.0,86,0.00,,,0.00,meteohub,2013-10-08 08:19:00,
2013-10-08 01:24:00,55.0,50.9,29.93,SSW,199,7.0,8.0,86,0.00,,,0.00,meteohub,2013-10-08 08:24:00,
2013-10-08 01:29:00,54.9,50.7,29.93,SSW,198,6.0,8.0,86,0.00,,,0.00,meteohub,2013-10-08 08:29:00,
2013-10-08 01:34:00,54.9,50.7,29.93,SSW,199,5.0,8.0,86,0.00,,,0.00,meteohub,2013-10-08 08:34:00,
2013-10-08 01:39:00,54.9,51.1,29.93,SSW,201,5.0,8.0,87,0.00,,,0.00,meteohub,2013-10-08 08:39:00,
2013-10-08 01:44:00,54.9,51.1,29.93,South,189,6.0,9.0,87,0.00,,,0.00,meteohub,2013-10-08 08:44:00,
2013-10-08 01:49:00,54.9,50.7,29.93,SSW,200,7.0,9.0,86,0.00,,,0.00,meteohub,2013-10-08 08:49:00,
2013-10-08 01:54:00,54.9,50.7,29.93,SSW,195,6.0,9.0,86,0.00,,,0.00,meteohub,2013-10-08 08:54:00,
2013-10-08 01:59:00,55.0,50.9,29.93,SSW,195,4.0,8.0,86,0.00,,,0.00,meteohub,2013-10-08 08:59:00,
2013-10-08 02:04:00,55.0,50.9,29.93,South,187,6.0,8.0,86,0.00,,,0.00,meteohub,2013-10-08 09:04:00,
2013-10-08 02:09:00,55.0,50.9,29.93,South,187,2.0,7.0,86,0.00,,,0.00,meteohub,2013-10-08 09:09:00,
2013-10-08 02:14:00,55.0,50.9,29.93,South,187,4.0,7.0,86,0.00,,,0.00,meteohub,2013-10-08 09:14:00,
2013-10-08 02:19:00,55.0,50.9,29.93,South,187,2.0,7.0,86,0.00,,,0.00,meteohub,2013-10-08 09:19:00,
2013-10-08 02:24:00,55.0,50.9,29.93,South,187,4.0,6.0,86,0.00,,,0.00,meteohub,2013-10-08 09:24:00,
2013-10-08 02:30:00,55.0,50.9,29.93,South,187,5.0,6.0,86,0.00,,,0.00,meteohub,2013-10-08 09:30:00,
2013-10-08 02:35:00,55.0,50.9,29.93,South,188,4.0,7.0,86,0.00,,,0.00,meteohub,2013-10-08 09:35:00,
2013-10-08 02:40:00,55.0,50.9,29.93,South,185,3.0,7.0,86,0.00,,,0.00,meteohub,2013-10-08 09:40:00,
2013-10-08 02:45:00,54.9,50.7,29.93,South,185,2.0,7.0,86,0.00,,,0.00,meteohub,2013-10-08 09:45:00,
2013-10-08 02:50:00,54.9,51.1,29.92,South,186,2.0,7.0,87,0.00,,,0.00,meteohub,2013-10-08 09:50:00,
2013-10-08 02:55:00,54.7,50.9,29.92,South,185,2.0,7.0,87,0.00,,,0.00,meteohub,2013-10-08 09:55:00,
2013-10-08 03:00:00,54.7,50.9,29.92,South,185,0.0,5.0,87,0.00,,,0.00,meteohub,2013-10-08 10:00:00,
2013-10-08 03:05:00,54.5,50.7,29.92,South,184,0.0,5.0,87,0.00,,,0.00,meteohub,2013-10-08 10:05:00,
2013-10-08 03:10:00,54.3,50.5,29.92,South,185,2.0,4.0,87,0.00,,,0.00,meteohub,2013-10-08 10:10:00,
2013-10-08 03:15:00,54.1,50.4,29.92,South,185,3.0,4.0,87,0.00,,,0.00,meteohub,2013-10-08 10:15:00,
2013-10-08 03:20:00,54.1,50.4,29.92,South,185,3.0,4.0,87,0.00,,,0.00,meteohub,2013-10-08 10:20:00,
2013-10-08 03:25:00,54.1,50.4,29.92,South,184,2.0,6.0,87,0.00,,,0.00,meteohub,2013-10-08 10:25:00,
2013-10-08 03:30:00,54.1,50.4,29.92,South,185,1.0,6.0,87,0.00,,,0.00,meteohub,2013-10-08 10:30:00,
2013-10-08 03:35:00,54.0,49.8,29.92,South,185,2.0,5.0,86,0.00,,,0.00,meteohub,2013-10-08 10:35:00,
2013-10-08 03:40:00,53.8,49.6,29.92,South,185,0.0,4.0,86,0.00,,,0.00,meteohub,2013-10-08 10:40:00,
2013-10-08 03:45:00,53.8,49.6,29.93,South,185,0.0,4.0,86,0.00,,,0.00,meteohub,2013-10-08 10:45:00,
2013-10-08 03:50:00,54.0,50.2,29.93,South,185,0.0,3.0,87,0.00,,,0.00,meteohub,2013-10-08 10:50:00,
2013-10-08 03:55:00,53.8,50.0,29.93,South,185,0.0,2.0,87,0.00,,,0.00,meteohub,2013-10-08 10:55:00,
2013-10-08 04:00:00,53.6,49.8,29.93,South,185,1.0,3.0,87,0.00,,,0.00,meteohub,2013-10-08 11:00:00,
2013-10-08 04:05:00,53.4,49.6,29.93,South,185,1.0,3.0,87,0.00,,,0.00,meteohub,2013-10-08 11:05:00,
2013-10-08 04:10:00,53.6,50.2,29.93,South,185,0.0,3.0,88,0.00,,,0.00,meteohub,2013-10-08 11:10:00,
2013-10-08 04:15:00,53.6,50.2,29.93,South,185,0.0,3.0,88,0.00,,,0.00,meteohub,2013-10-08 11:15:00,
2013-10-08 04:20:00,53.6,50.2,29.94,South,184,0.0,3.0,88,0.00,,,0.00,meteohub,2013-10-08 11:20:00,
2013-10-08 04:25:00,53.6,50.2,29.93,South,185,0.0,1.0,88,0.00,,,0.00,meteohub,2013-10-08 11:25:00,
2013-10-08 04:30:00,53.4,50.0,29.93,South,184,0.0,1.0,88,0.00,,,0.00,meteohub,2013-10-08 11:30:00,
2013-10-08 04:35:00,53.4,50.0,29.93,South,185,1.0,1.0,88,0.00,,,0.00,meteohub,2013-10-08 11:35:00,
2013-10-08 04:40:00,53.2,49.8,29.93,South,185,0.0,3.0,88,0.00,,,0.00,meteohub,2013-10-08 11:40:00,
2013-10-08 04:45:00,53.2,49.8,29.93,South,185,1.0,3.0,88,0.00,,,0.00,meteohub,2013-10-08 11:45:00,
2013-10-08 04:51:00,53.1,49.6,29.93,South,185,1.0,4.0,88,0.00,,,0.00,meteohub,2013-10-08 11:51:00,
2013-10-08 04:56:00,53.1,49.8,29.93,South,185,1.0,4.0,89,0.00,,,0.00,meteohub,2013-10-08 11:56:00,
2013-10-08 05:01:00,53.1,49.8,29.93,South,184,4.0,4.0,89,0.00,,,0.00,meteohub,2013-10-08 12:01:00,
2013-10-08 05:06:00,53.1,49.8,29.93,South,184,1.0,4.0,89,0.00,,,0.00,meteohub,2013-10-08 12:06:00,
2013-10-08 05:11:00,53.1,49.8,29.93,South,183,1.0,4.0,89,0.00,,,0.00,meteohub,2013-10-08 12:11:00,
2013-10-08 05:16:00,52.9,49.6,29.93,South,183,0.0,4.0,89,0.00,,,0.00,meteohub,2013-10-08 12:16:00,
2013-10-08 05:21:00,52.9,49.6,29.92,South,183,2.0,3.0,89,0.00,,,0.00,meteohub,2013-10-08 12:21:00,
2013-10-08 05:26:00,52.7,49.5,29.92,South,184,2.0,3.0,89,0.00,,,0.00,meteohub,2013-10-08 12:26:00,
2013-10-08 05:31:00,52.9,50.0,29.92,South,184,0.0,4.0,90,0.00,,,0.00,meteohub,2013-10-08 12:31:00,
2013-10-08 05:36:00,52.7,49.5,29.92,South,183,0.0,4.0,89,0.00,,,0.00,meteohub,2013-10-08 12:36:00,
2013-10-08 05:41:00,52.7,49.5,29.92,South,183,0.0,4.0,89,0.00,,,0.00,meteohub,2013-10-08 12:41:00,
2013-10-08 05:46:00,52.7,49.8,29.93,South,185,0.0,1.0,90,0.00,,,0.00,meteohub,2013-10-08 12:46:00,
2013-10-08 05:51:00,52.5,49.5,29.93,South,183,0.0,1.0,89,0.00,,,0.00,meteohub,2013-10-08 12:51:00,
2013-10-08 05:56:00,52.5,49.5,29.93,South,184,0.0,1.0,89,0.00,,,0.00,meteohub,2013-10-08 12:56:00,
2013-10-08 06:01:00,52.5,49.5,29.93,South,183,0.0,0.0,89,0.00,,,0.00,meteohub,2013-10-08 13:01:00,
2013-10-08 06:07:00,52.3,49.3,29.93,South,183,0.0,0.0,89,0.00,,,0.00,meteohub,2013-10-08 13:07:00,
2013-10-08 06:12:00,52.3,49.3,29.93,South,184,0.0,0.0,89,0.00,,,0.00,meteohub,2013-10-08 13:12:00,
2013-10-08 06:17:00,52.2,49.1,29.94,South,183,0.0,0.0,89,0.00,,,0.00,meteohub,2013-10-08 13:17:00,
2013-10-08 06:22:00,52.0,48.9,29.94,South,183,0.0,1.0,89,0.00,,,0.00,meteohub,2013-10-08 13:22:00,
2013-10-08 06:27:00,51.6,48.6,29.94,South,184,0.0,1.0,89,0.00,,,0.00,meteohub,2013-10-08 13:27:00,
2013-10-08 06:32:00,51.3,47.8,29.94,South,184,0.0,1.0,88,0.00,,,0.00,meteohub,2013-10-08 13:32:00,
2013-10-08 06:37:00,50.9,47.5,29.94,South,184,0.0,1.0,88,0.00,,,0.00,meteohub,2013-10-08 13:37:00,
2013-10-08 06:42:00,50.7,47.3,29.94,South,183,1.0,1.0,88,0.00,,,0.00,meteohub,2013-10-08 13:42:00,
2013-10-08 06:47:00,50.5,47.1,29.94,South,184,0.0,2.0,88,0.00,,,0.00,meteohub,2013-10-08 13:47:00,
2013-10-08 06:52:00,50.4,46.6,29.94,South,183,0.0,2.0,87,0.00,,,0.00,meteohub,2013-10-08 13:52:00,
2013-10-08 06:57:00,50.2,46.4,29.94,South,183,0.0,2.0,87,0.00,,,0.00,meteohub,2013-10-08 13:57:00,
2013-10-08 07:02:00,50.2,46.8,29.94,South,183,0.0,2.0,88,0.00,,,0.00,meteohub,2013-10-08 14:02:00,
2013-10-08 07:07:00,50.4,46.9,29.94,South,183,2.0,2.0,88,0.00,,,0.00,meteohub,2013-10-08 14:07:00,
2013-10-08 07:12:00,50.4,46.6,29.94,South,183,1.0,2.0,87,0.00,,,0.00,meteohub,2013-10-08 14:12:00,
2013-10-08 07:17:00,50.5,47.1,29.94,South,184,0.0,3.0,88,0.00,,,0.00,meteohub,2013-10-08 14:17:00,
2013-10-08 07:22:00,50.5,47.1,29.95,South,183,0.0,3.0,88,0.00,,,0.00,meteohub,2013-10-08 14:22:00,
2013-10-08 07:27:00,50.5,47.1,29.95,South,183,0.0,2.0,88,0.00,,,0.00,meteohub,2013-10-08 14:27:00,
2013-10-08 07:33:00,50.7,46.9,29.94,South,183,0.0,0.0,87,0.00,,,0.00,meteohub,2013-10-08 14:33:00,
2013-10-08 07:38:00,50.7,46.9,29.94,South,183,1.0,1.0,87,0.00,,,0.00,meteohub,2013-10-08 14:38:00,
2013-10-08 07:43:00,50.7,47.3,29.94,South,183,2.0,2.0,88,0.00,,,0.00,meteohub,2013-10-08 14:43:00,
2013-10-08 07:48:00,51.3,47.5,29.94,South,183,0.0,2.0,87,0.00,,,0.00,meteohub,2013-10-08 14:48:00,
2013-10-08 07:53:00,51.6,48.2,29.94,South,184,2.0,2.0,88,0.00,,,0.00,meteohub,2013-10-08 14:53:00,
2013-10-08 07:58:00,52.3,48.9,29.94,South,185,0.0,3.0,88,0.00,,,0.00,meteohub,2013-10-08 14:58:00,
2013-10-08 08:03:00,52.9,49.5,29.94,South,185,0.0,3.0,88,0.00,,,0.00,meteohub,2013-10-08 15:03:00,
2013-10-08 08:08:00,53.4,49.6,29.94,South,184,0.0,3.0,87,0.00,,,0.00,meteohub,2013-10-08 15:08:00,
2013-10-08 08:13:00,54.1,50.4,29.94,South,183,0.0,3.0,87,0.00,,,0.00,meteohub,2013-10-08 15:13:00,
2013-10-08 08:18:00,54.5,50.4,29.95,South,184,0.0,1.0,86,0.00,,,0.00,meteohub,2013-10-08 15:18:00,
2013-10-08 08:23:00,54.9,50.7,29.95,South,185,0.0,1.0,86,0.00,,,0.00,meteohub,2013-10-08 15:23:00,
2013-10-08 08:28:00,55.2,51.1,29.95,South,183,0.0,0.0,86,0.00,,,0.00,meteohub,2013-10-08 15:28:00,
2013-10-08 08:33:00,55.8,52.0,29.95,South,185,0.0,0.0,87,0.00,,,0.00,meteohub,2013-10-08 15:33:00,
2013-10-08 08:38:00,56.1,52.0,29.95,South,184,0.0,0.0,86,0.00,,,0.00,meteohub,2013-10-08 15:38:00,
2013-10-08 08:43:00,56.8,52.7,29.95,South,183,0.0,0.0,86,0.00,,,0.00,meteohub,2013-10-08 15:43:00,
2013-10-08 08:48:00,57.4,52.5,29.95,South,184,0.0,1.0,84,0.00,,,0.00,meteohub,2013-10-08 15:48:00,
2013-10-08 08:53:00,57.9,52.7,29.96,South,183,0.0,1.0,83,0.00,,,0.00,meteohub,2013-10-08 15:53:00,
2013-10-08 08:58:00,58.3,53.1,29.95,South,183,0.0,2.0,83,0.00,,,0.00,meteohub,2013-10-08 15:58:00,
2013-10-08 09:04:00,58.6,52.9,29.95,South,184,0.0,2.0,81,0.00,,,0.00,meteohub,2013-10-08 16:04:00,
2013-10-08 09:09:00,59.4,53.8,29.95,South,183,1.0,2.0,82,0.00,,,0.00,meteohub,2013-10-08 16:09:00,
2013-10-08 09:14:00,60.1,54.0,29.95,South,183,0.0,2.0,80,0.00,,,0.00,meteohub,2013-10-08 16:14:00,
2013-10-08 09:19:00,60.3,53.4,29.96,South,183,0.0,2.0,78,0.00,,,0.00,meteohub,2013-10-08 16:19:00,
2013-10-08 09:24:00,60.1,53.2,29.96,South,184,3.0,3.0,78,0.00,,,0.00,meteohub,2013-10-08 16:24:00,
2013-10-08 09:29:00,59.7,52.9,29.96,South,183,0.0,3.0,78,0.00,,,0.00,meteohub,2013-10-08 16:29:00,
2013-10-08 09:34:00,59.5,52.7,29.95,South,183,0.0,4.0,78,0.00,,,0.00,meteohub,2013-10-08 16:34:00,
2013-10-08 09:39:00,59.9,53.1,29.95,South,183,3.0,4.0,78,0.00,,,0.00,meteohub,2013-10-08 16:39:00,
2013-10-08 09:44:00,60.1,52.9,29.95,South,185,0.0,3.0,77,0.00,,,0.00,meteohub,2013-10-08 16:44:00,
2013-10-08 09:49:00,60.6,53.8,29.95,South,183,0.0,3.0,78,0.00,,,0.00,meteohub,2013-10-08 16:49:00,
2013-10-08 09:54:00,61.9,54.3,29.95,South,183,0.0,3.0,76,0.00,,,0.00,meteohub,2013-10-08 16:54:00,
2013-10-08 09:59:00,62.1,53.6,29.95,South,187,5.0,0.0,74,0.00,,,0.00,meteohub,2013-10-08 16:59:00,
2013-10-08 10:04:00,61.0,53.1,29.95,South,190,2.0,5.0,75,0.00,,,0.00,meteohub,2013-10-08 17:04:00,
2013-10-08 10:09:00,60.4,53.2,29.95,SSW,199,4.0,8.0,77,0.00,,,0.00,meteohub,2013-10-08 17:09:00,
2013-10-08 10:14:00,60.3,53.4,29.96,SSW,197,3.0,8.0,78,0.00,,,0.00,meteohub,2013-10-08 17:14:00,
2013-10-08 10:19:00,60.3,53.8,29.95,SW,228,5.0,8.0,79,0.00,,,0.00,meteohub,2013-10-08 17:19:00,
2013-10-08 10:24:00,60.3,53.8,29.95,SSW,195,3.0,7.0,79,0.00,,,0.00,meteohub,2013-10-08 17:24:00,
2013-10-08 10:30:00,60.3,53.4,29.95,SSW,199,4.0,6.0,78,0.00,,,0.00,meteohub,2013-10-08 17:30:00,
2013-10-08 10:35:00,60.8,54.0,29.95,SSW,201,4.0,6.0,78,0.00,,,0.00,meteohub,2013-10-08 17:35:00,
2013-10-08 10:40:00,61.2,54.0,29.95,SSW,200,2.0,6.0,77,0.00,,,0.00,meteohub,2013-10-08 17:40:00,
2013-10-08 10:45:00,61.3,53.4,29.95,SSW,200,3.0,6.0,75,0.00,,,0.00,meteohub,2013-10-08 17:45:00,
2013-10-08 10:50:00,61.3,53.1,29.95,SW,217,1.0,6.0,74,0.00,,,0.00,meteohub,2013-10-08 17:50:00,
2013-10-08 10:55:00,61.5,53.2,29.95,SW,221,2.0,6.0,74,0.00,,,0.00,meteohub,2013-10-08 17:55:00,
2013-10-08 11:00:00,61.5,52.3,29.95,SW,220,3.0,7.0,72,0.00,,,0.00,meteohub,2013-10-08 18:00:00,
2013-10-08 11:05:00,62.1,52.2,29.95,SW,217,5.0,7.0,70,0.00,,,0.00,meteohub,2013-10-08 18:05:00,
2013-10-08 11:10:00,62.6,52.7,29.94,SSE,158,5.0,7.0,70,0.00,,,0.00,meteohub,2013-10-08 18:10:00,
2013-10-08 11:16:00,63.0,52.7,29.94,SSE,166,2.0,6.0,69,0.00,,,0.00,meteohub,2013-10-08 18:16:00,
2013-10-08 11:21:00,63.7,52.2,29.94,SSE,160,3.0,6.0,66,0.00,,,0.00,meteohub,2013-10-08 18:21:00,
2013-10-08 11:26:00,63.9,51.8,29.94,SSE,160,6.0,6.0,65,0.00,,,0.00,meteohub,2013-10-08 18:26:00,
2013-10-08 11:31:00,63.9,52.3,29.94,SSW,193,5.0,7.0,66,0.00,,,0.00,meteohub,2013-10-08 18:31:00,
2013-10-08 11:36:00,63.9,51.4,29.93,South,183,7.0,8.0,64,0.00,,,0.00,meteohub,2013-10-08 18:36:00,
2013-10-08 11:41:00,63.7,50.9,29.93,South,177,4.0,8.0,63,0.00,,,0.00,meteohub,2013-10-08 18:41:00,
2013-10-08 11:46:00,63.7,51.3,29.93,SSW,193,6.0,8.0,64,0.00,,,0.00,meteohub,2013-10-08 18:46:00,
2013-10-08 11:51:00,63.3,51.8,29.92,SSE,155,3.0,8.0,66,0.00,,,0.00,meteohub,2013-10-08 18:51:00,
2013-10-08 11:56:00,63.1,51.6,29.93,South,176,6.0,8.0,66,0.00,,,0.00,meteohub,2013-10-08 18:56:00,
2013-10-08 12:01:00,63.0,51.1,29.93,South,189,5.0,8.0,65,0.00,,,0.00,meteohub,2013-10-08 19:01:00,
2013-10-08 12:06:00,63.1,52.3,29.92,SSW,195,7.0,8.0,68,0.00,,,0.00,meteohub,2013-10-08 19:06:00,
2013-10-08 12:11:00,63.9,51.8,29.92,South,172,5.0,8.0,65,0.00,,,0.00,meteohub,2013-10-08 19:11:00,
2013-10-08 12:16:00,64.2,50.5,29.92,SSE,159,5.0,8.0,61,0.00,,,0.00,meteohub,2013-10-08 19:16:00,
2013-10-08 12:21:00,64.9,47.5,29.92,SSW,194,5.0,8.0,53,0.00,,,0.00,meteohub,2013-10-08 19:21:00,
2013-10-08 12:26:00,64.8,46.2,29.92,South,185,5.0,9.0,51,0.00,,,0.00,meteohub,2013-10-08 19:26:00,
2013-10-08 12:31:00,65.1,47.5,29.91,SSW,200,8.0,10.0,53,0.00,,,0.00,meteohub,2013-10-08 19:31:00,
2013-10-08 12:36:00,65.3,47.3,29.91,South,186,7.0,10.0,52,0.00,,,0.00,meteohub,2013-10-08 19:36:00,
2013-10-08 12:42:00,65.1,48.6,29.91,South,181,6.0,10.0,55,0.00,,,0.00,meteohub,2013-10-08 19:42:00,
2013-10-08 12:47:00,63.7,52.2,29.91,SSW,210,10.0,11.0,66,0.00,,,0.00,meteohub,2013-10-08 19:47:00,
2013-10-08 12:52:00,61.9,50.4,29.91,SSW,195,8.0,11.0,66,0.00,,,0.00,meteohub,2013-10-08 19:52:00,
2013-10-08 12:57:00,62.4,51.3,29.91,SW,216,3.0,12.0,67,0.00,,,0.00,meteohub,2013-10-08 19:57:00,
2013-10-08 13:02:00,63.0,52.2,29.91,SSW,208,7.0,12.0,68,0.00,,,0.00,meteohub,2013-10-08 20:02:00,
2013-10-08 13:07:00,63.0,51.1,29.90,SSW,206,7.0,11.0,65,0.00,,,0.00,meteohub,2013-10-08 20:07:00,
2013-10-08 13:12:00,62.4,50.9,29.90,SW,218,9.0,11.0,66,0.00,,,0.00,meteohub,2013-10-08 20:12:00,
2013-10-08 13:17:00,63.1,51.6,29.89,South,181,5.0,11.0,66,0.00,,,0.00,meteohub,2013-10-08 20:17:00,
2013-10-08 13:22:00,63.0,51.4,29.89,South,170,5.0,11.0,66,0.00,,,0.00,meteohub,2013-10-08 20:22:00,
2013-10-08 13:27:00,63.1,52.3,29.89,South,187,7.0,10.0,68,0.00,,,0.00,meteohub,2013-10-08 20:27:00,
2013-10-08 13:32:00,63.0,51.4,29.88,South,170,5.0,8.0,66,0.00,,,0.00,meteohub,2013-10-08 20:32:00,
2013-10-08 13:37:00,63.0,51.4,29.88,SSE,150,4.0,9.0,66,0.00,,,0.00,meteohub,2013-10-08 20:37:00,
2013-10-08 13:42:00,63.0,51.4,29.88,SSE,164,5.0,9.0,66,0.00,,,0.00,meteohub,2013-10-08 20:42:00,
2013-10-08 13:47:00,63.0,49.8,29.88,SSW,198,7.0,9.0,62,0.00,,,0.00,meteohub,2013-10-08 20:47:00,
2013-10-08 13:52:00,62.8,50.4,29.87,South,183,6.0,13.0,64,0.00,,,0.00,meteohub,2013-10-08 20:52:00,
2013-10-08 13:57:00,63.1,50.7,29.87,SSW,202,7.0,13.0,64,0.00,,,0.00,meteohub,2013-10-08 20:57:00,
2013-10-08 14:02:00,63.3,50.9,29.86,South,174,6.0,13.0,64,0.00,,,0.00,meteohub,2013-10-08 21:02:00,
2013-10-08 14:08:00,63.3,51.4,29.86,South,189,8.0,11.0,65,0.00,,,0.00,meteohub,2013-10-08 21:08:00,
2013-10-08 14:13:00,62.4,51.3,29.86,South,180,11.0,11.0,67,0.00,,,0.00,meteohub,2013-10-08 21:13:00,
2013-10-08 14:18:00,61.5,51.6,29.86,South,187,10.0,11.0,70,0.00,,,0.00,meteohub,2013-10-08 21:18:00,
2013-10-08 14:23:00,60.6,51.6,29.86,SSE,158,9.0,14.0,72,0.00,,,0.00,meteohub,2013-10-08 21:23:00,
2013-10-08 14:28:00,60.3,52.0,29.86,South,191,14.0,15.0,74,0.00,,,0.00,meteohub,2013-10-08 21:28:00,
2013-10-08 14:33:00,59.5,51.3,29.85,South,189,7.0,15.0,74,0.00,,,0.00,meteohub,2013-10-08 21:33:00,
2013-10-08 14:38:00,60.1,51.4,29.85,SSE,168,12.0,15.0,73,0.00,,,0.00,meteohub,2013-10-08 21:38:00,
2013-10-08 14:43:00,59.7,51.1,29.85,South,175,11.0,15.0,73,0.00,,,0.00,meteohub,2013-10-08 21:43:00,
2013-10-08 14:48:00,59.7,51.1,29.85,SSE,157,14.0,18.0,73,0.00,,,0.00,meteohub,2013-10-08 21:48:00,
2013-10-08 14:54:00,59.7,51.4,29.85,SSE,168,14.0,18.0,74,0.00,,,0.00,meteohub,2013-10-08 21:54:00,
2013-10-08 14:59:00,59.7,51.4,29.85,SSE,162,7.0,18.0,74,0.00,,,0.00,meteohub,2013-10-08 21:59:00,
2013-10-08 15:04:00,60.1,51.8,29.84,South,169,8.0,17.0,74,0.00,,,0.00,meteohub,2013-10-08 22:04:00,
2013-10-08 15:09:00,60.6,51.6,29.84,SSE,161,5.0,16.0,72,0.00,,,0.00,meteohub,2013-10-08 22:09:00,
2013-10-08 15:14:00,61.2,52.0,29.84,SSE,161,6.0,13.0,72,0.00,,,0.00,meteohub,2013-10-08 22:14:00,
2013-10-08 15:19:00,61.3,52.2,29.84,SSE,154,5.0,13.0,72,0.00,,,0.00,meteohub,2013-10-08 22:19:00,
2013-10-08 15:24:00,61.3,52.2,29.84,SSE,155,5.0,12.0,72,0.00,,,0.00,meteohub,2013-10-08 22:24:00,
2013-10-08 15:29:00,60.8,51.8,29.84,SSE,149,12.0,12.0,72,0.00,,,0.00,meteohub,2013-10-08 22:29:00,
2013-10-08 15:34:00,60.4,51.8,29.84,North,359,7.0,13.0,73,0.00,,,0.00,meteohub,2013-10-08 22:34:00,
2013-10-08 15:39:00,60.4,51.8,29.84,SSE,158,4.0,13.0,73,0.00,,,0.00,meteohub,2013-10-08 22:39:00,
2013-10-08 15:44:00,60.3,51.3,29.84,SSE,168,6.0,13.0,72,0.00,,,0.00,meteohub,2013-10-08 22:44:00,
2013-10-08 15:49:00,60.4,51.4,29.83,South,177,5.0,14.0,72,0.00,,,0.00,meteohub,2013-10-08 22:49:00,
2013-10-08 15:54:00,60.6,51.6,29.83,SSE,166,6.0,14.0,72,0.00,,,0.00,meteohub,2013-10-08 22:54:00,
2013-10-08 15:59:00,60.4,51.4,29.83,South,178,7.0,14.0,72,0.00,,,0.00,meteohub,2013-10-08 22:59:00,
2013-10-08 16:04:00,60.4,51.4,29.83,SE,135,3.0,13.0,72,0.00,,,0.00,meteohub,2013-10-08 23:04:00,
2013-10-08 16:09:00,60.6,51.1,29.83,SE,129,10.0,13.0,71,0.00,,,0.00,meteohub,2013-10-08 23:09:00,
2013-10-08 16:14:00,60.8,51.3,29.83,SSE,166,8.0,13.0,71,0.00,,,0.00,meteohub,2013-10-08 23:14:00,
2013-10-08 16:19:00,60.3,51.3,29.83,South,179,5.0,13.0,72,0.00,,,0.00,meteohub,2013-10-08 23:19:00,
2013-10-08 16:24:00,60.4,51.4,29.83,SSE,158,6.0,14.0,72,0.00,,,0.00,meteohub,2013-10-08 23:24:00,
2013-10-08 16:29:00,60.1,51.4,29.83,SE,129,10.0,14.0,73,0.00,,,0.00,meteohub,2013-10-08 23:29:00,
2013-10-08 16:34:00,59.5,51.3,29.82,SSE,166,8.0,13.0,74,0.00,,,0.00,meteohub,2013-10-08 23:34:00,
2013-10-08 16:40:00,59.2,51.3,29.82,SSE,164,12.0,13.0,75,0.00,,,0.00,meteohub,2013-10-08 23:40:00,
2013-10-08 16:45:00,59.0,51.4,29.82,SSE,165,6.0,14.0,76,0.00,,,0.00,meteohub,2013-10-08 23:45:00,
2013-10-08 16:50:00,58.8,50.9,29.82,South,173,9.0,14.0,75,0.00,,,0.00,meteohub,2013-10-08 23:50:00,
2013-10-08 16:55:00,58.8,50.9,29.82,SSE,154,7.0,14.0,75,0.00,,,0.00,meteohub,2013-10-08 23:55:00,
2013-10-08 17:00:00,58.8,51.6,29.81,SSE,160,5.0,14.0,77,0.00,,,0.00,meteohub,2013-10-09 00:00:00,
2013-10-08 17:05:00,58.8,51.6,29.81,SSE,147,4.0,14.0,77,0.00,,,0.00,meteohub,2013-10-09 00:05:00,
2013-10-08 17:10:00,58.5,51.3,29.81,SSE,156,8.0,13.0,77,0.00,,,0.00,meteohub,2013-10-09 00:10:00,
2013-10-08 17:15:00,58.3,51.1,29.81,SSE,150,15.0,15.0,77,0.00,,,0.00,meteohub,2013-10-09 00:15:00,
2013-10-08 17:20:00,57.9,51.1,29.81,South,178,9.0,14.0,78,0.00,,,0.00,meteohub,2013-10-09 00:20:00,
2013-10-08 17:25:00,57.7,50.2,29.81,South,179,12.0,18.0,76,0.00,,,0.00,meteohub,2013-10-09 00:25:00,
2013-10-08 17:30:00,57.6,50.0,29.81,South,190,12.0,18.0,76,0.00,,,0.00,meteohub,2013-10-09 00:30:00,
2013-10-08 17:35:00,57.6,48.6,29.81,South,173,12.0,20.0,72,0.00,,,0.00,meteohub,2013-10-09 00:35:00,
2013-10-08 17:40:00,57.7,48.4,29.80,SSW,197,14.0,21.0,71,0.00,,,0.00,meteohub,2013-10-09 00:40:00,
2013-10-08 17:45:00,57.9,48.9,29.80,South,191,12.0,21.0,72,0.00,,,0.00,meteohub,2013-10-09 00:45:00,
2013-10-08 17:50:00,58.3,48.2,29.80,South,191,11.0,19.0,69,0.00,,,0.00,meteohub,2013-10-09 00:50:00,
2013-10-08 17:55:00,57.9,48.6,29.79,South,188,12.0,19.0,71,0.00,,,0.00,meteohub,2013-10-09 00:55:00,
2013-10-08 18:00:00,57.6,49.3,29.80,SSW,198,15.0,19.0,74,0.00,,,0.00,meteohub,2013-10-09 01:00:00,
2013-10-08 18:05:00,57.2,49.6,29.80,South,189,10.0,19.0,76,0.00,,,0.00,meteohub,2013-10-09 01:05:00,
2013-10-08 18:10:00,57.0,49.5,29.80,South,172,6.0,18.0,76,0.00,,,0.00,meteohub,2013-10-09 01:10:00,
2013-10-08 18:15:00,56.8,49.6,29.80,SSW,210,7.0,18.0,77,0.00,,,0.00,meteohub,2013-10-09 01:15:00,
2013-10-08 18:20:00,56.7,49.8,29.80,SSW,204,7.0,15.0,78,0.00,,,0.00,meteohub,2013-10-09 01:20:00,
2013-10-08 18:25:00,56.5,50.0,29.79,SSW,195,9.0,14.0,79,0.00,,,0.00,meteohub,2013-10-09 01:25:00,
2013-10-08 18:30:00,56.1,50.0,29.79,South,181,11.0,14.0,80,0.00,,,0.00,meteohub,2013-10-09 01:30:00,
2013-10-08 18:35:00,55.9,50.2,29.80,South,187,10.0,14.0,81,0.00,,,0.00,meteohub,2013-10-09 01:35:00,
2013-10-08 18:40:00,55.8,50.0,29.79,SW,218,11.0,14.0,81,0.00,,,0.00,meteohub,2013-10-09 01:40:00,
2013-10-08 18:45:00,55.8,50.4,29.79,SSW,202,5.0,14.0,82,0.00,,,0.00,meteohub,2013-10-09 01:45:00,
2013-10-08 18:50:00,55.8,50.0,29.79,SSW,197,8.0,14.0,81,0.00,,,0.00,meteohub,2013-10-09 01:50:00,
2013-10-08 18:55:00,55.9,50.2,29.79,SSW,193,4.0,12.0,81,0.00,,,0.00,meteohub,2013-10-09 01:55:00,
2013-10-08 19:00:00,56.1,50.4,29.78,SSW,193,6.0,12.0,81,0.00,,,0.00,meteohub,2013-10-09 02:00:00,
2013-10-08 19:05:00,56.5,50.0,29.78,SSW,203,7.0,9.0,79,0.00,,,0.00,meteohub,2013-10-09 02:05:00,
2013-10-08 19:10:00,56.7,49.8,29.78,SSW,200,5.0,9.0,78,0.00,,,0.00,meteohub,2013-10-09 02:10:00,
2013-10-08 19:15:00,56.8,49.6,29.78,South,185,4.0,8.0,77,0.00,,,0.00,meteohub,2013-10-09 02:15:00,
2013-10-08 19:20:00,57.0,49.5,29.78,South,178,2.0,8.0,76,0.00,,,0.00,meteohub,2013-10-09 02:20:00,
2013-10-08 19:25:00,57.2,49.6,29.78,South,174,5.0,8.0,76,0.00,,,0.00,meteohub,2013-10-09 02:25:00,
2013-10-08 19:30:00,57.4,50.2,29.78,South,174,3.0,8.0,77,0.00,,,0.00,meteohub,2013-10-09 02:30:00,
2013-10-08 19:35:00,57.2,50.4,29.78,South,174,0.0,7.0,78,0.00,,,0.00,meteohub,2013-10-09 02:35:00,
2013-10-08 19:40:00,57.2,50.7,29.78,South,175,5.0,6.0,79,0.00,,,0.00,meteohub,2013-10-09 02:40:00,
2013-10-08 19:46:00,57.2,51.1,29.78,South,182,5.0,7.0,80,0.00,,,0.00,meteohub,2013-10-09 02:46:00,
2013-10-08 19:51:00,57.2,51.1,29.78,South,183,2.0,7.0,80,0.00,,,0.00,meteohub,2013-10-09 02:51:00,
2013-10-08 19:56:00,57.0,50.9,29.78,South,183,2.0,7.0,80,0.00,,,0.00,meteohub,2013-10-09 02:56:00,
2013-10-08 20:01:00,57.0,50.9,29.78,South,183,4.0,6.0,80,0.00,,,0.00,meteohub,2013-10-09 03:01:00,
2013-10-08 20:06:00,57.0,50.9,29.78,South,183,5.0,6.0,80,0.00,,,0.00,meteohub,2013-10-09 03:06:00,
2013-10-08 20:11:00,56.8,50.7,29.78,South,183,2.0,7.0,80,0.00,,,0.00,meteohub,2013-10-09 03:11:00,
2013-10-08 20:16:00,56.8,50.7,29.78,South,172,2.0,7.0,80,0.00,,,0.00,meteohub,2013-10-09 03:16:00,
2013-10-08 20:21:00,56.8,50.7,29.78,South,171,4.0,7.0,80,0.00,,,0.00,meteohub,2013-10-09 03:21:00,
2013-10-08 20:26:00,56.8,51.1,29.78,SSE,162,4.0,8.0,81,0.00,,,0.00,meteohub,2013-10-09 03:26:00,
2013-10-08 20:31:00,56.8,51.1,29.78,SSE,164,4.0,8.0,81,0.00,,,0.00,meteohub,2013-10-09 03:31:00,
2013-10-08 20:36:00,56.7,50.9,29.78,SSE,162,6.0,8.0,81,0.00,,,0.00,meteohub,2013-10-09 03:36:00,
2013-10-08 20:41:00,56.7,50.9,29.78,SSE,162,5.0,8.0,81,0.00,,,0.00,meteohub,2013-10-09 03:41:00,
2013-10-08 20:46:00,56.5,50.4,29.78,SSE,162,4.0,8.0,80,0.00,,,0.00,meteohub,2013-10-09 03:46:00,
2013-10-08 20:51:00,56.5,50.4,29.78,SSE,162,3.0,7.0,80,0.00,,,0.00,meteohub,2013-10-09 03:51:00,
2013-10-08 20:56:00,56.3,49.8,29.79,SSE,162,2.0,6.0,79,0.00,,,0.00,meteohub,2013-10-09 03:56:00,
2013-10-08 21:01:00,56.1,49.6,29.79,SSE,162,2.0,4.0,79,0.00,,,0.00,meteohub,2013-10-09 04:01:00,
2013-10-08 21:02:00,56.1,49.6,29.79,SSE,162,0.0,4.0,79,0.00,,,0.00,meteohub,2013-10-09 04:02:00,
2013-10-08 21:05:00,56.1,50.0,29.79,SSE,162,2.0,4.0,80,0.00,,,0.00,meteohub,2013-10-09 04:05:00,
2013-10-08 21:06:00,56.1,50.0,29.79,SSE,162,2.0,4.0,80,0.00,,,0.00,meteohub,2013-10-09 04:06:00,
2013-10-08 21:08:00,56.1,50.0,29.79,SSE,162,4.0,4.0,80,0.00,,,0.00,meteohub,2013-10-09 04:08:00,
2013-10-08 21:13:00,56.1,49.6,29.79,SSE,162,2.0,5.0,79,0.00,,,0.00,meteohub,2013-10-09 04:13:00,
2013-10-08 21:18:00,55.9,49.5,29.79,SSE,161,4.0,5.0,79,0.00,,,0.00,meteohub,2013-10-09 04:18:00,
2013-10-08 21:23:00,55.9,49.8,29.78,SSE,162,4.0,5.0,80,0.00,,,0.00,meteohub,2013-10-09 04:23:00,
2013-10-08 21:28:00,55.9,49.8,29.78,SSE,162,5.0,6.0,80,0.00,,,0.00,meteohub,2013-10-09 04:28:00,
2013-10-08 21:33:00,55.9,49.8,29.79,SSE,162,3.0,6.0,80,0.00,,,0.00,meteohub,2013-10-09 04:33:00,
2013-10-08 21:38:00,55.9,49.5,29.79,SSE,162,3.0,6.0,79,0.00,,,0.00,meteohub,2013-10-09 04:38:00,
2013-10-08 21:43:00,55.9,49.5,29.79,SSE,161,3.0,6.0,79,0.00,,,0.00,meteohub,2013-10-09 04:43:00,
2013-10-08 21:48:00,55.9,49.5,29.79,SSE,162,2.0,5.0,79,0.00,,,0.00,meteohub,2013-10-09 04:48:00,
2013-10-08 21:53:00,55.9,49.5,29.79,SSE,162,3.0,5.0,79,0.00,,,0.00,meteohub,2013-10-09 04:53:00,
2013-10-08 21:58:00,55.9,49.5,29.78,SSE,161,3.0,6.0,79,0.00,,,0.00,meteohub,2013-10-09 04:58:00,
2013-10-08 22:03:00,55.9,49.8,29.79,SSE,162,4.0,6.0,80,0.00,,,0.00,meteohub,2013-10-09 05:03:00,
2013-10-08 22:08:00,55.8,49.6,29.78,SSE,161,5.0,6.0,80,0.00,,,0.00,meteohub,2013-10-09 05:08:00,
2013-10-08 22:13:00,55.8,49.6,29.79,SSE,161,3.0,5.0,80,0.00,,,0.00,meteohub,2013-10-09 05:13:00,
2013-10-08 22:18:00,55.8,49.6,29.78,SSE,160,4.0,5.0,80,0.00,,,0.00,meteohub,2013-10-09 05:18:00,
2013-10-08 22:23:00,55.6,49.8,29.78,SSE,160,3.0,6.0,81,0.00,,,0.00,meteohub,2013-10-09 05:23:00,
2013-10-08 22:29:00,55.6,49.8,29.78,SSE,160,5.0,6.0,81,0.00,,,0.00,meteohub,2013-10-09 05:29:00,
2013-10-08 22:34:00,55.6,49.8,29.78,SSE,158,4.0,5.0,81,0.00,,,0.00,meteohub,2013-10-09 05:34:00,
2013-10-08 22:39:00,55.6,50.2,29.77,SSE,159,4.0,7.0,82,0.00,,,0.00,meteohub,2013-10-09 05:39:00,
2013-10-08 22:44:00,55.6,50.2,29.77,SSE,167,3.0,7.0,82,0.00,,,0.00,meteohub,2013-10-09 05:44:00,
2013-10-08 22:49:00,55.8,50.4,29.78,SSE,160,3.0,8.0,82,0.00,,,0.00,meteohub,2013-10-09 05:49:00,
2013-10-08 22:54:00,55.8,50.0,29.78,SSE,155,4.0,8.0,81,0.00,,,0.00,meteohub,2013-10-09 05:54:00,
2013-10-08 22:59:00,55.6,49.8,29.77,SSE,154,3.0,8.0,81,0.00,,,0.00,meteohub,2013-10-09 05:59:00,
2013-10-08 23:04:00,55.4,49.6,29.77,SSE,148,4.0,8.0,81,0.00,,,0.00,meteohub,2013-10-09 06:04:00,
2013-10-08 23:09:00,55.2,49.5,29.77,SE,143,3.0,7.0,81,0.00,,,0.00,meteohub,2013-10-09 06:09:00,
2013-10-08 23:14:00,55.2,49.5,29.77,SE,143,3.0,7.0,81,0.00,,,0.00,meteohub,2013-10-09 06:14:00,
2013-10-08 23:19:00,55.0,49.3,29.77,SSE,147,4.0,7.0,81,0.00,,,0.00,meteohub,2013-10-09 06:19:00,
2013-10-08 23:24:00,55.2,49.5,29.77,SSE,152,3.0,6.0,81,0.00,,,0.00,meteohub,2013-10-09 06:24:00,
2013-10-08 23:29:00,55.2,49.5,29.77,SE,137,0.0,7.0,81,0.00,,,0.00,meteohub,2013-10-09 06:29:00,
2013-10-08 23:34:00,55.0,49.6,29.77,SSE,148,6.0,7.0,82,0.00,,,0.00,meteohub,2013-10-09 06:34:00,
2013-10-08 23:39:00,55.0,50.0,29.77,SE,141,7.0,8.0,83,0.00,,,0.00,meteohub,2013-10-09 06:39:00,
2013-10-08 23:44:00,55.0,50.0,29.77,SSE,160,6.0,8.0,83,0.00,,,0.00,meteohub,2013-10-09 06:44:00,
2013-10-08 23:49:00,55.0,50.0,29.76,SSE,152,7.0,10.0,83,0.00,,,0.00,meteohub,2013-10-09 06:49:00,
2013-10-08 23:54:00,54.9,50.2,29.76,SSE,149,8.0,10.0,84,0.00,,,0.00,meteohub,2013-10-09 06:54:00,
2013-10-08 23:59:00,54.9,50.2,29.76,SSE,154,8.0,9.0,84,0.00,,,0.00,meteohub,2013-10-09 06:59:00,